TimeCDT,TemperatureF,Dew PointF,Humidity,Sea Level PressureIn,VisibilityMPH,Wind Direction,Wind SpeedMPH,Gust SpeedMPH,PrecipitationIn,Events,Conditions,WindDirDegrees,DateUTC
12:15 AM,64.4,62.6,94,29.96,3.0,NNW,4.6,-,N/A,,Clear,330,2013-08-22 05:15:00
12:35 AM,64.4,64.4,100,29.96,10.0,Calm,Calm,-,N/A,,Clear,0,2013-08-22 05:35:00
12:55 AM,66.2,62.6,88,29.97,6.0,Calm,Calm,-,N/A,,Clear,0,2013-08-22 05:55:00
1:15 AM,66.2,62.6,88,29.96,9.0,NNW,4.6,-,0.01,,Clear,340,2013-08-22 06:15:00
1:35 AM,64.4,62.6,94,29.96,10.0,NNW,5.8,-,0.01,,Clear,330,2013-08-22 06:35:00
1:55 AM,66.2,62.6,88,29.97,9.0,WNW,3.5,-,0.01,,Clear,300,2013-08-22 06:55:00
2:15 AM,66.2,62.6,88,29.97,9.0,WNW,3.5,-,N/A,,Clear,290,2013-08-22 07:15:00
2:35 AM,64.4,62.6,94,29.99,9.0,West,4.6,-,N/A,,Clear,280,2013-08-22 07:35:00
2:55 AM,64.4,62.6,94,29.99,7.0,Calm,Calm,-,N/A,,Clear,0,2013-08-22 07:55:00
3:15 AM,64.4,62.6,94,30.00,3.0,SSW,3.5,-,N/A,,Clear,200,2013-08-22 08:15:00
3:35 AM,64.4,62.6,94,30.01,1.5,SW,4.6,-,N/A,,Clear,230,2013-08-22 08:35:00
3:55 AM,64.4,62.6,94,30.00,4.0,Calm,Calm,-,N/A,,Clear,0,2013-08-22 08:55:00
4:15 AM,64.4,62.6,94,30.00,2.0,Calm,Calm,-,N/A,,Clear,0,2013-08-22 09:15:00
4:35 AM,62.6,60.8,94,30.01,1.0,Calm,Calm,-,N/A,,Clear,0,2013-08-22 09:35:00
4:55 AM,64.4,60.8,88,30.01,0.8,Calm,Calm,-,N/A,,Unknown,0,2013-08-22 09:55:00
5:15 AM,62.6,60.8,94,30.02,0.8,Calm,Calm,-,N/A,,Unknown,0,2013-08-22 10:15:00
5:35 AM,62.6,60.8,94,30.02,0.5,SW,3.5,-,N/A,,Unknown,230,2013-08-22 10:35:00
5:55 AM,64.4,60.8,88,30.02,0.5,NW,3.5,-,N/A,,Unknown,320,2013-08-22 10:55:00
6:15 AM,62.6,62.6,100,30.02,1.8,WNW,4.6,-,N/A,,Clear,300,2013-08-22 11:15:00
6:35 AM,62.6,62.6,100,30.03,3.0,NNW,3.5,-,N/A,,Clear,330,2013-08-22 11:35:00
6:55 AM,62.6,60.8,94,30.04,7.0,NNW,6.9,-,N/A,,Clear,330,2013-08-22 11:55:00
7:15 AM,62.6,60.8,94,30.05,9.0,NNW,5.8,-,N/A,,Scattered Clouds,330,2013-08-22 12:15:00
7:35 AM,64.4,62.6,94,30.05,9.0,NNW,3.5,-,N/A,,Clear,340,2013-08-22 12:35:00
7:55 AM,64.4,62.6,94,30.06,10.0,NNW,5.8,-,N/A,,Clear,330,2013-08-22 12:55:00
8:15 AM,64.4,62.6,94,30.05,10.0,NNW,8.1,-,N/A,,Clear,340,2013-08-22 13:15:00
8:35 AM,64.4,62.6,94,30.05,10.0,North,4.6,-,N/A,,Clear,350,2013-08-22 13:35:00
8:55 AM,64.4,64.4,100,30.06,10.0,NNW,8.1,-,N/A,,Clear,340,2013-08-22 13:55:00
9:15 AM,66.2,62.6,88,30.07,10.0,North,8.1,-,N/A,,Clear,10,2013-08-22 14:15:00
9:35 AM,66.2,62.6,88,30.06,10.0,North,3.5,-,N/A,,Partly Cloudy,360,2013-08-22 14:35:00
9:55 AM,68.0,60.8,78,30.07,10.0,Calm,Calm,-,N/A,,Scattered Clouds,0,2013-08-22 14:55:00
10:15 AM,69.8,62.6,78,30.09,10.0,North,8.1,-,N/A,,Partly Cloudy,360,2013-08-22 15:15:00
10:35 AM,69.8,62.6,78,30.09,10.0,North,6.9,-,N/A,,Partly Cloudy,360,2013-08-22 15:35:00
10:55 AM,71.6,60.8,69,30.09,10.0,Calm,Calm,-,N/A,,Partly Cloudy,0,2013-08-22 15:55:00
11:15 AM,73.4,60.8,65,30.09,10.0,NNE,5.8,-,N/A,,Clear,30,2013-08-22 16:15:00
11:35 AM,73.4,60.8,65,30.09,10.0,ENE,4.6,-,N/A,,Clear,60,2013-08-22 16:35:00
11:55 AM,75.2,60.8,61,30.09,10.0,Calm,Calm,-,N/A,,Clear,0,2013-08-22 16:55:00
12:15 PM,75.2,60.8,61,30.08,10.0,East,6.9,-,N/A,,Clear,90,2013-08-22 17:15:00
12:35 PM,75.2,59.0,57,30.08,10.0,SE,6.9,-,N/A,,Clear,130,2013-08-22 17:35:00
12:55 PM,73.4,59.0,61,30.08,10.0,ESE,9.2,-,N/A,,Clear,120,2013-08-22 17:55:00
1:15 PM,73.4,59.0,61,30.08,10.0,ESE,9.2,-,N/A,,Clear,120,2013-08-22 18:15:00
1:35 PM,73.4,57.2,57,30.08,10.0,ESE,8.1,-,N/A,,Clear,110,2013-08-22 18:35:00
1:55 PM,73.4,59.0,61,30.08,10.0,ESE,6.9,-,N/A,,Clear,120,2013-08-22 18:55:00
2:15 PM,75.2,57.2,53,30.08,7.0,ESE,6.9,-,N/A,,Clear,110,2013-08-22 19:15:00
2:35 PM,75.2,55.4,50,30.08,10.0,ESE,8.1,-,N/A,,Clear,110,2013-08-22 19:35:00
2:55 PM,75.2,55.4,50,30.08,10.0,ESE,6.9,-,N/A,,Clear,120,2013-08-22 19:55:00
3:15 PM,75.2,53.6,47,30.08,10.0,ESE,9.2,-,N/A,,Clear,110,2013-08-22 20:15:00
3:35 PM,77.0,51.8,41,30.08,10.0,ESE,8.1,-,N/A,,Clear,110,2013-08-22 20:35:00
3:55 PM,77.0,51.8,41,30.07,10.0,ESE,6.9,-,N/A,,Clear,120,2013-08-22 20:55:00
4:15 PM,77.0,50.0,39,30.07,10.0,ESE,6.9,-,N/A,,Clear,120,2013-08-22 21:15:00
4:35 PM,77.0,51.8,41,30.07,10.0,East,6.9,-,N/A,,Clear,100,2013-08-22 21:35:00
4:55 PM,77.0,51.8,41,30.07,10.0,East,8.1,-,N/A,,Clear,90,2013-08-22 21:55:00
5:15 PM,75.2,53.6,47,30.07,10.0,East,8.1,-,N/A,,Clear,100,2013-08-22 22:15:00
5:35 PM,75.2,53.6,47,30.07,10.0,ESE,4.6,-,N/A,,Clear,110,2013-08-22 22:35:00
5:55 PM,75.2,53.6,47,30.07,10.0,SE,5.8,-,N/A,,Clear,130,2013-08-22 22:55:00
6:15 PM,75.2,53.6,47,30.07,10.0,East,5.8,-,N/A,,Clear,90,2013-08-22 23:15:00
6:35 PM,75.2,53.6,47,30.07,10.0,East,3.5,-,N/A,,Clear,100,2013-08-22 23:35:00
6:55 PM,75.2,55.4,50,30.08,10.0,Calm,Calm,-,N/A,,Clear,0,2013-08-22 23:55:00
7:15 PM,71.6,55.4,57,30.08,10.0,Calm,Calm,-,N/A,,Clear,0,2013-08-23 00:15:00
7:35 PM,68.0,57.2,68,30.09,10.0,Calm,Calm,-,N/A,,Clear,0,2013-08-23 00:35:00
7:55 PM,64.4,60.8,88,30.09,10.0,Calm,Calm,-,N/A,,Clear,0,2013-08-23 00:55:00
8:15 PM,66.2,57.2,73,30.10,8.0,NE,3.5,-,N/A,,Clear,50,2013-08-23 01:15:00
8:35 PM,64.4,57.2,77,30.11,10.0,ENE,4.6,-,N/A,,Clear,70,2013-08-23 01:35:00
8:55 PM,64.4,55.4,73,30.12,10.0,ENE,5.8,-,N/A,,Clear,70,2013-08-23 01:55:00
9:15 PM,66.2,55.4,68,30.12,10.0,ENE,4.6,-,N/A,,Clear,60,2013-08-23 02:15:00
9:35 PM,64.4,57.2,77,30.13,10.0,ENE,6.9,-,N/A,,Clear,70,2013-08-23 02:35:00
9:55 PM,66.2,55.4,68,30.13,10.0,ENE,5.8,-,N/A,,Clear,60,2013-08-23 02:55:00
10:15 PM,64.4,55.4,73,30.14,10.0,NE,8.1,-,N/A,,Clear,40,2013-08-23 03:15:00
10:35 PM,62.6,53.6,72,30.14,10.0,NE,6.9,-,N/A,,Clear,50,2013-08-23 03:35:00
10:55 PM,62.6,51.8,68,30.14,10.0,NE,6.9,-,N/A,,Partly Cloudy,40,2013-08-23 03:55:00
11:15 PM,62.6,51.8,68,30.15,10.0,NNE,5.8,-,N/A,,Partly Cloudy,30,2013-08-23 04:15:00
11:35 PM,60.8,50.0,68,30.15,10.0,NNE,4.6,-,N/A,,Clear,20,2013-08-23 04:35:00
11:55 PM,60.8,51.8,72,30.15,10.0,North,3.5,-,N/A,,Partly Cloudy,350,2013-08-23 04:55:00